Change the Weather History Date:

Saturday, October 13, 2012

  Actual Average Record
Temperature  
Mean Temperature 72 °F -  
Max Temperature 82 °F 78 °F - ()
Min Temperature 63 °F 64 °F - ()
Cooling Degree Days 8    
Growing Degree Days 22 (Base 50)    
Moisture  
Dew Point 65 °F    
Average Humidity 78    
Maximum Humidity 94    
Minimum Humidity 48    
Precipitation  
Precipitation 0.16 in 0.32 in - ()
Sea Level Pressure  
Sea Level Pressure 29.96 in    
Wind  
Wind Speed 6 mph ()    
Max Wind Speed 14 mph    
Max Gust Speed -    
Visibility 6.3 miles    
Events Fog , Rain , Thunderstorm    
T = Trace of Precipitation, MM = Missing Value Source: Averaged Metar Reports

Daily Weather History Graph

Daily Weather History Graph

Search for Another Location

Airport or City:

Trip Planner

Search our weather history database for the weather conditions in past years. The results will help you decide how hot, cold, wet, or windy it might be!

Date:

Astronomy

Oct. 13, 2012 Rise Set
Actual Time 5:25 AM CST 5:20 PM CST
Civil Twilight 5:04 AM CST 5:41 PM CST
Nautical Twilight 4:39 AM CST 6:06 PM CST
Astronomical Twilight 4:15 AM CST 6:30 PM CST
Moon 3:31 AM CST (10/13) 3:52 PM CST (10/13)
Length of Visible Light 12h 37m
Length of Day
11h 55m
Waning Crescent, 4% of the Moon is Illuminated
Oct 13
Waning Crescent
Oct 15
New
Oct 21
First Quarter
Oct 29
Full
Nov 6
Last Quarter

Hourly Weather History & Observations

Time (CST) Temp. Heat Index Dew Point Humidity Pressure Visibility Wind Dir Wind Speed Gust Speed Precip Events Conditions
1:00 AM 68.0 °F - 60.8 °F 78% 29.99 in - East 5.8 mph - N/A   Clear
2:00 AM 68.0 °F - 60.8 °F 78% 29.97 in - ENE 4.6 mph - N/A   Clear
3:00 AM 68.0 °F - 60.8 °F 78% 29.97 in - ENE 5.8 mph - N/A   Clear
4:00 AM 64.4 °F - 60.8 °F 88% 29.98 in - ENE 8.1 mph - N/A   Clear
5:00 AM 68.0 °F - 60.8 °F 78% 29.99 in - ENE 8.1 mph - N/A   Clear
6:00 AM 68.0 °F - 60.8 °F 78% 30.00 in - ENE 8.1 mph - N/A   Clear
7:00 AM 73.4 °F - 62.6 °F 69% 30.03 in - ENE 3.5 mph - N/A   Clear
8:00 AM 75.2 °F - 62.6 °F 65% 30.03 in 6.2 mi ENE 6.9 mph - N/A   Mostly Cloudy
9:00 AM 79 °F - 63 °F 48% 29.86 in 12 mi ESE 5.8 mph - -   Scattered Clouds
9:00 AM 78.8 °F - 62.6 °F 57% 30.03 in 6.2 mi ESE 5.8 mph - N/A   Mostly Cloudy
10:00 AM 80.6 °F 81.8 °F 62.6 °F 54% 30.01 in 6.2 mi ESE 8.1 mph - N/A   Mostly Cloudy
10:20 AM 78.8 °F - 68.0 °F 69% 30.00 in 6.2 mi SW 12.7 mph - N/A   Mostly Cloudy
11:00 AM 75.2 °F - 66.2 °F 73% 30.00 in 6.2 mi West 13.8 mph - N/A   Mostly Cloudy
12:00 PM 76 °F - 68 °F 69% 29.83 in 12 mi WSW 10.4 mph - -   Overcast
12:00 PM 77.0 °F - 68.0 °F 74% 29.97 in 6.2 mi WSW 10.4 mph - N/A   Mostly Cloudy
1:00 PM 78.8 °F - 68.0 °F 69% 29.94 in 6.2 mi SW 9.2 mph - N/A   Mostly Cloudy
2:00 PM 77.0 °F - 69.8 °F 78% 29.92 in 6.2 mi WSW 9.2 mph - N/A   Mostly Cloudy
3:00 PM 77 °F - 69 °F 71% 29.77 in 12 mi West 10.4 mph - -   Overcast
3:00 PM 77.0 °F - 69.8 °F 78% 29.91 in 6.2 mi West 10.4 mph - N/A   Mostly Cloudy
4:00 PM 73.4 °F - 68.0 °F 83% 29.91 in 6.2 mi WSW 9.2 mph - N/A   Mostly Cloudy
5:00 PM 71.6 °F - 68.0 °F 88% 29.95 in 5.0 mi WSW 5.8 mph - N/A   Mostly Cloudy
5:10 PM 71.6 °F - 68.0 °F 88% 29.96 in 3.1 mi WSW 3.5 mph - N/A Rain , Thunderstorm Light Thunderstorms and Rain
6:00 PM 72 °F - 69 °F 87% 29.85 in 9 mi South 2.3 mph - - Rain Light Rain
6:00 PM 71.6 °F - 69.8 °F 94% 29.98 in 6.2 mi South 2.3 mph - N/A Rain Light Rain
7:00 PM 68.0 °F - 66.2 °F 94% 29.99 in 5.0 mi SW 5.8 mph - N/A Fog Fog
8:00 PM 68.0 °F - 66.2 °F 94% 30.02 in 1.9 mi WSW 5.8 mph - N/A   Mostly Cloudy
9:00 PM 68 °F - 66 °F 93% 29.86 in 2 mi WSW 1.2 mph - -   Mist
9:00 PM 68.0 °F - 66.2 °F 94% 30.01 in 1.9 mi WSW 1.2 mph - N/A   Mostly Cloudy
9:30 PM 68.0 °F - 66.2 °F 94% 30.01 in 6.2 mi ENE 4.6 mph - N/A Fog Patches of Fog
10:00 PM 68.0 °F - 64.4 °F 88% 30.01 in 6.2 mi ENE 5.8 mph - N/A Fog Mostly Cloudy
11:00 PM 68.0 °F - 62.6 °F 83% 30.00 in 6.2 mi ENE 5.8 mph - N/A Fog Mostly Cloudy